User: anonymous   Login
Location: Bretagne
(43.8474°N, 0.4650°W)
Time: 12:01:24
(UTC+00:00)
Language:

Cosmos 1959 Rocket - Orbit

View from above orbital plane
View from above orbital plane
View from above satellite
View from above satellite

Ground track
Ground track

The orbit is defined by the following mean orbital elements,

1 19325U          26066.07410355 +.00000000 +00000-0 +98534-4 0 00001
2 19325  82.9547 175.4148 0032466 310.7449 223.0035 13.77908625    09
Epoch (UTC): 07 March 2026 01:46:42
Eccentricity: 0.0032466
inclination: 82.9547°
perigee height: 947 km
apogee height: 995 km
right ascension of ascending node: 175.4148°
argument of perigee: 310.7449°
revolutions per day: 13.77908625
mean anomaly at epoch: 223.0035°

The dashed part of the orbit path shows where the satellite is in the earth's shadow,  

DLR